[Date Prev][Date Next][Thread Prev][Thread Next][Date Index][Thread Index]

[jamsat-news:599] ANS-208 WEEKLY BULLETINS


un-subscribe or change your Internet address for any of the AMSAT
lists. You may request to be added or deleted from the following
lists: AMSAT-BB, ANS, SAREX, or KEPS. Please *do not* send such
requests to the lists themselves.**

SB SAT @ AMSAT  $ANS-208.01
PHASE 3-D LAUNCH UPDATE

HR AMSAT NEWS SERVICE BULLETIN 208.01 FROM AMSAT HQ
SILVER SPRING, MD, JULY 27, 1997
TO ALL RADIO AMATEURS BT
BID: $ANS-208.01

On Wednesday July 16 a meeting was held in Marburg, Germany  between Dr..
Karl Meinzer, DJ4ZC, the Phase 3-D Project Leader and AMSAT-DL President,
and Werner Haas, DJ5KQ, AMSAT-DL Vice President; and officials of the
European Space Agency (ESA).  The purpose of the meeting was to discuss
the launch schedule for Ariane 502, on which the Phase 3-D spacecraft is
to fly.   At this meeting, the ESA officials re-iterated their intent to
launch A-502 at the end of September and said that the launch campaign for
this flight has already begun..  They stated that, as part of this launch
campaign the Phase 3-D spacecraft must arrive in Kourou by August 10th.

Earlier, ESA had informed AMSAT that, following analysis of data from the
Ariane 501 flight, they had significantly increased their estimates for the
acceleration and vibration environments which spacecraft riding on Ariane
502 are expected to encounter.  As a result of this new information, AMSAT
has been re-evaluating the structural capabilities of the Phase 3-D
spaceframe.  As a part of this effort, an independent structural engineer
was brought in to review the spacecraft's design and construction.  His
conclusions were recently presented to Dr.. Meinzer and AMSAT-NA people.
His report stated that, in order to be confident of surviving these
increased launch environments, a number of modifications must be made to
the spacecraft. Since that report was presented, substantial effort has
been taking place at the Phase 3-D Integration Laboratory in Orlando,
Florida to manufacture and install the recommended structural parts
necessary to increase the spacecraft's vibration and acceleration
capability.

At the Marburg meeting, Dr.. Meinzer made it clear to the ESA officials,
that
this work, made necessary by ESA's new environmental information, would
prevent AMSAT from delivering the spacecraft to Kourou by the specified
August 10th date.   Thus, it was the conclusion of the meeting that, as a
result of these ESA specification changes, the Phase 3-D schedule and that
of ESA for Ariane 502 are not compatible.   Thus, unless, something
changes, which ESA does not presently contemplate, Phase 3-D will not be
able to be launched on Ariane 502. Furthermore, in order to maintain the
planned mass characteristics of the Ariane 502 vehicle, AMSAT must supply
a mass simulator representing the Phase 3-D spacecraft to be sent aloft on
the flight.  This must be in Kourou by September 5th.

Despite, this very bad news, Dr.. Meinzer and other AMSAT officials
expressed
some degree of confidence the Phase 3D may yet fly on Ariane 502.  They
based this on a number of activities taking place in the preparation of
the launch vehicle that, they believe, could cause a slip in the currently
published ESA schedule.  The ESA officials attending the Marburg meeting
said that, if a  slip should occur, which they do not currently
contemplate,  which, results in the two schedules again becoming
compatible, efforts would be made to substitute the Phase 3-D spacecraft
for the mass simulator. Therefore AMSAT is continuing in the work of
completing the necessary structural modifications to the spacecraft,
and conducting environmental testing.

Keep tuned to ANS for developments as they become available.

[ANS thanks Phase 3-D Project Leader Dr.. Karl Meinzer, DJ4ZC, and AMSAT-NA
President Bill Tynan, W3XO, for this information.]

/EX

SB SAT @ AMSAT  $ANS-208.02
MIR TNC PROBLEM

HR AMSAT NEWS SERVICE BULLETIN 208.02 FROM AMSAT HQ
SILVER SPRING, MD, JULY 27, 1997
TO ALL RADIO AMATEURS BT
BID: $ANS-208.02

This  message was sent to ALL by Mike Foale onboard Space Station
MIR:
Posted : 07/25/97 09:53
To     : ALL
>From  : R0MIR  :
Subject: MIR status
Lost power to tnc again - lost all messages.   Possibly will get new
tnc,  with memory protection, in August, with next crew.  We are doing
experiments, especially Vassily and Sasha, even though they now have
very little time leiroda and Krisctal still without
power, but a little drier now, though still dark.  I planted the first
ever space produced seeds, two days ago, in Greenhouse.  No sprouts yet.
Mike. kb5uac.

Other MIR messages can be found at:
http://www.geocities.com/~ik1sld/mirmsg_frame.htm

[ANS thanks Claudio Ariotti,  IK1SLD , for this news.]

/EX

SB SAT @ AMSAT  $ANS-208.03
MIREX UPDATE

HR AMSAT NEWS SERVICE BULLETIN 208.03 FROM AMSAT HQ
SILVER SPRING, MD, JULY 27, 1997
TO ALL RADIO AMATEURS BT
BID: $ANS-208.03

A serious problem with de-sensing of the 2-meter receiver
exists on the MIR space station, and this has caused frustration on the
part of the cosmonauts, groundstations, and the MIREX team.  MIR is using
multiple commercial VHF channels to send voice and data down to earth
based tracking stations around the world.  One of the commercial VHF
transmitters operating on 143 MHz is de-sensing the 2-meter Amateur
Radio Station.  Because of the de-sensing problem, the 2-meter station
is OFF the air or unable to copy groundstation signals most of the time.

The MIREX team has constructed a special filter for the 2-meter MIR radio
station to help eliminate the de-sensing problem.  However, because of
higher priorities on onboard the MIR complex at the present time, the
MIREX team has not been able to acquire all of the required permissions
to deliver the filter to the cosmonauts on MIR.  MIREX is still actively
working on the situation.  Pat Kilroy, WD8LAQ, reports that an effort is
underway to send the filter with the Mir24/NASA5 crew.  This task is
being led by Will Marchant, Dave Larsen, and Miles Mann.

One of the options to get around the de-sensing problem is to temporarily
move MIR Amateur radio operations to 70 cm.  However, this would open up
a whole new set of problems.  Most 70 cm transceivers cannot work MIR for
the following reasons:

1.  Most transceivers sold in the USA do not transmit in the satellite
    subband between 435.000 MHz and 438.000 MHz.
2.  Most transceivers cannot make the channel steps smaller than 5 KHz.
    A 1 KHz channel step works best when compensating with Doppler shift.
3.  The Doppler shift on 70cm during a 10 minutes pass is +/- 10 KHz.
    This means groundstations need to adjust their transmitters and
    receivers in opposite directions at the same time, and the adjustments
    need to be made every 10 to 30 seconds for the duration for the pass.
    This is much too complicated for beginners.
4.  MIREX has always felt that 2-meter 1200 baud simplex packet operations
    are the best for all that are new to satellite operations and is the
    most cost effective.

Note 1: Any comments about the 145.800/200 frequency should be directed to
SAFEX.

Note 2: The reason MIR is sometimes heard on 145.985 MHz simplex is because
the crew is using the 2-meter station as a backup source of family message
traffic.  The sysops N6CO and WF1F are uploading family message traffic
daily. When MIR is in range of Europe, the crews (if they are not busy)
will switch back to 800/200.

Remember the name of the 2-meter project on MIR is called the PMS Personal
Message System.  It is not a Public Bulletin Board System.

[ANS thanks John Magliacane, KB2BD, and SpaceNews for this
update.]

/EX

SB SAT @ AMSAT  $ANS-208.04
STS-85 TLE's

HR AMSAT NEWS SERVICE BULLETIN 208.04 FROM AMSAT HQ
SILVER SPRING, MD, JULY 27, 1997
TO ALL RADIO AMATEURS BT
BID: $ANS-208.04

Below is the nominal OMS-2 State Vector and Keplerian Elements for
STS-85.  The vector data comes from NASA; the Keplerian Elements
were computed from the vector.

This file may be read by VEC2TLE version 9648 to update your
Keplerian Elements text file.

Vector format = 10117
Satellite Name:         STS-85
Catalog Number:         99985
Epoch MET:                  0.02694288194
                           0/00:38:47.865 MET
EFG E:                       9312888.2997 ft
    F:                      19528753.2625 ft
    G:                       3386153.5174 ft
    Edot:                -9779.3058815773 ft/s
    Fdot:                 8295.0387295085 ft/s
    Gdot:                -20910.457822872 ft/s
ndot/2 (drag):              0.00029652672 rev/day^2
nddt/6:                       3.68109E-09 rev/day^3
Bstar:                        8.58271E-05 1/Earth Radii
Elset #:                                1
Rev @ Epoch:                1.47042961084

Scheduled Launch: 07-AUG-97 / 14:41 UTC

Note that 99985 is a temporary Catalog Number.  A permanent Catalog
Number and International Designator will be assigned following the
Launch of STS-85.

The following Keplerian elements were computed by VEC2TLE from this
vector, using a 1.0 drag multiplier:

STS-85
1 99985U          97219.63874844  .00029653  36811-8  85827-4 0    12
2 99985  57.0000  76.4760 0008548 266.7495 262.6168 15.92299149    11

Satellite: STS-85
Catalog number: 99985
Epoch time:      97219.63874844
Element set:       1
Inclination:       57.0000 deg
RA of node:        76.4760 deg
Eccentricity:    0.0008548
Arg of perigee:   266.7495 deg
Mean anomaly:     262.6168 deg
Mean motion:   15.92299149 rev/day
Decay rate:    2.96527e-04 rev/day^2
Epoch rev:               1
Checksum:              354

VEC2TLE may be downloaded from:

http://www.amsat.org/amsat/sarex/orbit.html

[Ken Ernandes, N2WWD, for this information.]

/EX

SB SAT @ AMSAT  $ANS-208.05
P3D DXPEDITION PLANNED

HR AMSAT NEWS SERVICE BULLETIN 208.05 FROM AMSAT HQ
SILVER SPRING, MD, JULY 27, 1997
TO ALL RADIO AMATEURS BT
BID: $ANS-208.05

